[[{"header":{"parameterUnit":"m.s-1","parameterCategory":1,"la1":30.2991,"la2":30.254,"lo1":-89.0895,"lo2":-89.0444,"dy":0.0017,"dx":0.0017,"nx":28,"ny":28,"refTime":"2025-11-23T09:00:00:Z","depth":0,"parameterNumber":2,"parameterNumberName":"U-component_of_WINDS"},"data":[0,0,0,0,0,0,0,0,0,0,0,0,0,0,0,0,0,0,0,0,0,0,0,0,0,0,0,0,0,0,0,0,0,0,0,0,0,0,0,0,0,0,0,0,0,0,0,0,0,0,0,0,0,0,0,0,0,0,-3.8093,-3.8093,0,-3.8142,-3.8143,-3.8143,-3.8128,-3.8127,-3.8126,-3.8125,-3.8174,-3.8176,-3.8178,0,0,0,0,0,0,0,0,0,0,0,0,0,-3.7984,-3.7986,-3.8093,-3.8093,-3.8094,-3.8142,-3.8143,-3.8143,-3.8128,-3.8127,-3.8126,-3.8125,-3.8173,-3.8176,-3.8179,0,0,0,0,0,0,0,0,0,0,0,0,0,-3.8032,-3.7986,-3.8093,-3.8092,-3.8093,-3.8142,-3.8143,-3.8144,-3.8129,-3.8127,-3.8125,-3.8124,-3.8172,-3.8176,-3.8179,-3.8231,0,0,-3.8189,-3.8191,0,0,0,0,0,0,0,0,-3.8029,-3.8036,-3.8092,-3.8092,-3.8093,-3.8127,-3.8122,-3.8173,-3.8129,-3.8115,-3.8125,-3.8123,-3.816,-3.8164,-3.8177,-3.8233,-3.8235,-3.819,-3.8192,-3.8193,-3.8194,0,0,0,0,0,0,0,-3.8026,-3.8034,-3.8112,-3.8093,-3.8093,-3.8089,-3.8094,-3.8132,-3.8145,-3.8116,-3.8115,-3.8121,-3.816,-3.8173,-3.8178,-3.8236,-3.8189,-3.8192,-3.8195,-3.8196,-3.8337,-3.8339,0,0,0,0,0,0,-3.8022,-3.8031,-3.8111,-3.8114,-3.8057,-3.8092,-3.8098,-3.8118,-3.8145,-3.8147,-3.8122,-3.812,-3.8168,-3.8174,-3.8179,-3.8241,-3.8193,-3.8196,-3.8198,-3.8336,-3.8338,-3.834,0,0,0,0,0,0,-3.802,-3.803,-3.8109,-3.8072,-3.8082,-3.8096,-3.8118,-3.812,-3.8133,-3.815,-3.8152,-3.8134,-3.8167,-3.8174,-3.8218,-3.8243,-3.8198,-3.8201,-3.8334,-3.8336,-3.8339,-3.8366,0,0,0,0,0,0,-3.8017,-3.8029,-3.8049,-3.8073,-3.8084,-3.8147,-3.812,-3.8122,-3.8139,-3.8137,-3.8161,-3.8164,-3.8167,-3.8213,-3.8222,-3.8247,-3.8203,-3.8331,-3.8335,-3.8338,-3.8363,-3.8369,-3.8374,0,0,0,0,0,-3.8013,-3.8054,-3.805,-3.806,-3.811,-3.8149,-3.8155,-3.8158,-3.8142,-3.8162,-3.8172,-3.8163,-3.8239,-3.8218,-3.8227,-3.8253,-3.833,-3.8334,-3.8338,-3.836,-3.8368,-3.8374,0,0,0,0,0,0,-3.8032,-3.8057,-3.8053,-3.8103,-3.8124,-3.8146,-3.8171,-3.8166,-3.8192,-3.8188,-3.819,-3.8196,-3.8241,-3.8252,-3.8228,-3.8305,-3.8282,-3.8288,-3.8296,-3.8303,-3.8309,-3.8305,-3.8206,0,0,0,0,0,-3.8043,-3.8073,-3.8093,-3.8136,-3.8146,-3.8157,-3.8174,-3.8175,-3.8196,-3.8205,-3.8219,-3.8239,-3.8268,-3.8286,-3.8314,-3.8365,-3.837,-3.8388,-3.8394,-3.8398,-3.8403,-3.843,-3.8438,-3.8352,-3.8352,-3.8352,0,0,-3.8064,-3.8081,-3.81,-3.814,-3.8156,-3.8187,-3.8165,-3.8198,-3.8221,-3.821,-3.8252,-3.8263,-3.8286,-3.8334,-3.8355,-3.8344,-3.8428,-3.8403,-3.8407,-3.8409,-3.8435,-3.8443,-3.845,-3.8355,-3.8355,-3.8354,0,0,-3.8118,-3.8135,-3.8171,-3.8188,-3.8213,-3.8221,-3.823,-3.8253,-3.826,-3.8302,-3.8295,-3.8321,-3.8371,-3.8387,-3.8402,-3.8464,-3.8456,-3.8473,-3.8502,-3.8529,-3.8535,-3.8541,-3.8562,-3.857,-3.8477,-3.8477,-3.8477,0,-3.814,-3.8187,-3.8191,-3.8225,-3.8242,-3.8235,-3.8272,-3.8288,-3.8321,-3.8333,-3.832,-3.8382,-3.8397,-3.8448,-3.8463,-3.8476,-3.8485,-3.8469,-3.8534,-3.854,-3.8546,-3.8566,-3.8574,-3.8479,-3.8479,-3.8479,-3.8479,0,-3.8213,-3.8246,-3.8273,-3.8305,-3.8325,-3.8361,-3.8369,-3.839,-3.8389,-3.8397,-3.844,-3.8459,-3.8489,-3.8502,-3.8501,-3.8553,-3.8545,-3.8534,-3.851,-3.8556,-3.8574,-3.8582,-3.8482,-3.8481,-3.8481,-3.848,0,0,-3.8279,-3.8314,-3.8324,-3.8338,-3.8365,-3.839,-3.8425,-3.8456,-3.8473,-3.8496,-3.8525,-3.8567,-3.8556,-3.8573,-3.8575,-3.8599,-3.8645,-3.8584,-3.8584,-3.8593,-3.8702,-3.8709,-3.8718,-3.864,-3.8642,-3.8643,-3.8699,0,-3.8335,-3.8397,-3.8402,-3.8457,-3.8487,-3.8481,-3.8511,-3.8531,-3.854,-3.8566,-3.8576,-3.8605,-3.859,-3.86,-3.8623,-3.8634,-3.8666,-3.863,-3.8666,-3.8667,-3.8659,-3.8728,-3.8736,-3.8788,-3.8707,-3.8708,-3.8709,0,-3.8407,-3.8433,-3.8492,-3.8515,-3.8527,-3.8555,-3.8583,-3.8608,-3.8631,-3.8636,-3.8655,-3.8653,-3.8689,-3.8666,-3.8714,-3.8689,-3.8705,-3.8712,-3.8714,-3.8717,-3.869,-3.8731,-3.8805,-3.8813,-3.8721,-3.872,-3.8719,0,-3.8448,-3.8498,-3.8539,-3.8552,-3.858,-3.8599,-3.8612,-3.8633,-3.8651,-3.8676,-3.8687,-3.8716,-3.8731,-3.8753,-3.8759,-3.8742,-3.8807,-3.8784,-3.8811,-3.8811,-3.8824,-3.8823,-3.8901,-3.8836,-3.8836,-3.8836,-3.8836,0,-3.8509,-3.8545,-3.8558,-3.8583,-3.8623,-3.8628,-3.8667,-3.8679,-3.8698,-3.8725,-3.8721,-3.8747,-3.8754,-3.878,-3.8785,-3.8824,-3.8831,-3.8836,-3.8836,-3.8835,-3.8834,-3.8844,-3.884,-3.8838,-3.8838,-3.8837,-3.8837,0,-3.8561,-3.8571,-3.8616,-3.8639,-3.8646,-3.8674,-3.8694,-3.8718,-3.8727,-3.8761,-3.877,-3.8783,-3.8814,-3.8823,-3.886,-3.8863,-3.8909,-3.8907,-3.8901,-3.8901,-3.8927,-3.8924,-3.9012,-3.9024,-3.8953,-3.8954,-3.8954,0,-3.8598,-3.8626,-3.8652,-3.867,-3.8684,-3.8713,-3.8732,-3.8738,-3.8758,-3.8785,-3.8806,-3.8837,-3.8861,-3.8911,-3.8924,-3.8953,-3.8951,-3.898,-3.8955,-3.8953,-3.895,-3.8947,-3.895,-3.8984,-3.8985,-3.8985,-3.8986,0,-3.8663,-3.8667,-3.8694,-3.8723,-3.8745,-3.8768,-3.879,-3.8805,-3.8815,-3.8836,-3.8868,-3.8888,-3.8926,-3.8956,-3.8985,-3.8998,-3.8993,-3.8994,-3.9001,-3.9,-3.8995,-3.8997,-3.8913,-3.8991,-3.8991,-3.899,-3.899,-3.899,-3.8708,-3.8732,-3.8755,-3.8785,-3.8802,-3.8823,-3.8847,-3.8859,-3.8886,-3.8917,-3.892,-3.8954,-3.8976,-3.9014,-3.9028,-3.9055,-3.9046,-3.9057,-3.906,-3.9062,-3.9064,-3.8992,-3.906,-3.906,-3.906,-3.906,-3.906,0,-3.8772,-3.8786,-3.8814,-3.8845,-3.8869,-3.8864,-3.8888,-3.8908,-3.8938,-3.8959,-3.8984,-3.902,-3.905,-3.9065,-3.9095,-3.9113,-3.9112,-3.912,-3.9118,-3.9121,-3.9071,-3.9061,-3.9121,-3.9121,-3.9121,-3.9121,-3.9121,-3.9121,-3.8808,-3.8848,-3.8855,-3.8903,-3.8917,-3.8951,-3.8965,-3.8984,-3.9001,-3.9042,-3.9066,-3.9077,-3.9095,-3.9126,-3.9153,-3.9156,-3.9167,-3.9177,-3.9179,-3.9131,-3.9125,-3.9119,-3.9109,-3.9179,-3.9179,-3.9227,-3.9228,-3.9228]},{"header":{"parameterUnit":"m.s-1","parameterCategory":1,"la1":30.2991,"la2":30.254,"lo1":-89.0895,"lo2":-89.0444,"dy":0.0017,"dx":0.0017,"nx":28,"ny":28,"refTime":"2025-11-23T09:00:00:Z","depth":0,"parameterNumber":3,"parameterNumberName":"V-component_of_WINDS"},"data":[0,0,0,0,0,0,0,0,0,0,0,0,0,0,0,0,0,0,0,0,0,0,0,0,0,0,0,0,0,0,0,0,0,0,0,0,0,0,0,0,0,0,0,0,0,0,0,0,0,0,0,0,0,0,0,0,0,0,4.6064,4.6066,0,4.6253,4.6255,4.6257,4.6265,4.6262,4.626,4.6258,4.6447,4.6454,4.6461,0,0,0,0,0,0,0,0,0,0,0,0,0,4.5708,4.5715,4.6064,4.6066,4.6069,4.6252,4.6255,4.6258,4.6265,4.6262,4.626,4.6257,4.6444,4.6453,4.6461,0,0,0,0,0,0,0,0,0,0,0,0,0,4.5876,4.5717,4.6064,4.6095,4.6099,4.6252,4.6255,4.6258,4.6266,4.6262,4.6259,4.6256,4.6442,4.6452,4.6462,4.6595,0,0,4.6495,4.65,0,0,0,0,0,0,0,0,4.5867,4.5889,4.6088,4.6093,4.6098,4.6232,4.6199,4.6371,4.6266,4.6202,4.6258,4.6254,4.6378,4.6393,4.6436,4.6604,4.6612,4.6496,4.6502,4.6507,4.651,0,0,0,0,0,0,0,4.5855,4.5881,4.6138,4.6091,4.6097,4.6099,4.6119,4.6231,4.6306,4.6208,4.6209,4.6231,4.638,4.6426,4.644,4.6615,4.6496,4.6505,4.6512,4.6516,4.6906,4.6909,0,0,0,0,0,0,4.5838,4.5871,4.6132,4.6144,4.5972,4.6108,4.613,4.6192,4.6305,4.6319,4.6234,4.6231,4.6409,4.6428,4.6447,4.6613,4.6507,4.6517,4.6523,4.6902,4.6907,4.6911,0,0,0,0,0,0,4.583,4.5861,4.6125,4.6008,4.6042,4.6117,4.6187,4.6198,4.6244,4.6325,4.6338,4.6267,4.6407,4.6432,4.656,4.662,4.6522,4.6531,4.6897,4.6903,4.6909,4.6945,0,0,0,0,0,0,4.582,4.5858,4.591,4.6009,4.6048,4.6235,4.6191,4.6204,4.6263,4.626,4.636,4.6373,4.6406,4.6544,4.657,4.6633,4.654,4.6892,4.69,4.6907,4.6939,4.6951,4.6962,0,0,0,0,0,4.5807,4.591,4.5912,4.5944,4.6114,4.6238,4.6261,4.6299,4.6267,4.632,4.6373,4.637,4.6609,4.6557,4.6587,4.6653,4.6888,4.6898,4.6906,4.6933,4.6949,4.6962,0,0,0,0,0,0,4.5813,4.5924,4.5927,4.6066,4.6143,4.624,4.6307,4.6313,4.6399,4.6393,4.6435,4.6458,4.6585,4.6631,4.6572,4.679,4.6745,4.676,4.6755,4.677,4.6782,4.6769,4.6549,0,0,0,0,0,4.5831,4.5924,4.6015,4.6128,4.6167,4.6231,4.6286,4.6309,4.639,4.6422,4.6484,4.6561,4.6655,4.6714,4.6804,4.6945,4.6968,4.7005,4.7017,4.7026,4.704,4.7121,4.714,4.694,4.694,4.694,0,0,4.5868,4.594,4.5995,4.6132,4.6194,4.6289,4.6258,4.6358,4.643,4.6436,4.6563,4.6611,4.67,4.6836,4.6899,4.6878,4.71,4.7038,4.7044,4.7053,4.7132,4.7151,4.7168,4.6946,4.6945,4.6944,0,0,4.5985,4.6048,4.6152,4.6216,4.6312,4.6354,4.6379,4.6476,4.6509,4.6636,4.6644,4.6729,4.6887,4.6952,4.7005,4.7151,4.7152,4.7178,4.724,4.7319,4.7335,4.7349,4.7404,4.7422,4.7191,4.7191,4.7191,0,4.6019,4.6164,4.6203,4.6307,4.6367,4.638,4.6486,4.6545,4.6665,4.6707,4.6682,4.6885,4.6945,4.7098,4.7134,4.7176,4.7207,4.7168,4.7329,4.7344,4.7358,4.7411,4.7431,4.7194,4.7193,4.7193,4.7193,0,4.6202,4.6302,4.6374,4.6493,4.6562,4.6665,4.6721,4.6785,4.6802,4.6847,4.6978,4.7052,4.7158,4.7196,4.7212,4.7352,4.7337,4.7321,4.7277,4.7379,4.7429,4.745,4.7198,4.7197,4.7196,4.7195,0,0,4.6328,4.647,4.6496,4.6551,4.666,4.6738,4.6842,4.6949,4.7005,4.7087,4.7177,4.7312,4.7299,4.736,4.7384,4.7453,4.7567,4.7428,4.7431,4.7454,4.773,4.7743,4.7766,4.7568,4.7572,4.7575,4.7723,0,4.6459,4.6648,4.6688,4.6851,4.6945,4.696,4.7052,4.7128,4.7173,4.726,4.7308,4.7405,4.7378,4.7416,4.7485,4.7539,4.7624,4.7528,4.7653,4.7657,4.7633,4.7792,4.7806,4.7942,4.7743,4.7746,4.7748,0,4.6637,4.6728,4.6901,4.7,4.7041,4.7123,4.7226,4.7308,4.7395,4.7423,4.7493,4.7511,4.7621,4.7571,4.7724,4.7659,4.7712,4.7746,4.7753,4.7767,4.771,4.7813,4.7985,4.8007,4.7779,4.7777,4.7774,0,4.6715,4.688,4.7006,4.7052,4.717,4.7228,4.728,4.7364,4.7427,4.7516,4.7558,4.7657,4.7713,4.7789,4.7834,4.7793,4.7985,4.7937,4.8012,4.8011,4.8053,4.805,4.8239,4.8083,4.8083,4.8083,4.8082,0,4.6859,4.6965,4.7043,4.7121,4.7241,4.7286,4.7403,4.7454,4.753,4.7618,4.7635,4.7717,4.777,4.7859,4.7894,4.8018,4.8041,4.8068,4.8076,4.8068,4.8065,4.8105,4.8098,4.8088,4.8087,4.8086,4.8085,0,4.6967,4.7024,4.7163,4.7264,4.7292,4.7377,4.7463,4.754,4.7585,4.7697,4.7725,4.7797,4.7904,4.7956,4.8087,4.8111,4.8251,4.8252,4.8223,4.8227,4.83,4.8293,4.8522,4.8556,4.8375,4.8377,4.8378,0,4.7057,4.7139,4.7251,4.7313,4.7367,4.7464,4.753,4.7578,4.7645,4.7753,4.7816,4.7924,4.8014,4.8184,4.8247,4.8348,4.8353,4.8427,4.8369,4.8359,4.8358,4.8354,4.8364,4.8438,4.8439,4.8441,4.8442,0,4.721,4.7235,4.7329,4.7435,4.7513,4.7597,4.768,4.7729,4.779,4.7865,4.7976,4.8045,4.8182,4.829,4.8396,4.8448,4.8457,4.846,4.8483,4.8477,4.8458,4.8472,4.8254,4.8455,4.8453,4.8452,4.8452,4.8451,4.7314,4.739,4.7482,4.7587,4.7655,4.7733,4.7811,4.7868,4.7962,4.8079,4.8101,4.8219,4.8307,4.8451,4.8507,4.8601,4.8584,4.8617,4.8626,4.8634,4.8639,4.8441,4.862,4.8619,4.8619,4.8619,4.8619,0,4.7472,4.7532,4.7629,4.7746,4.783,4.7831,4.7924,4.7994,4.8098,4.818,4.8269,4.8398,4.8503,4.8576,4.8683,4.8744,4.875,4.877,4.8768,4.878,4.8646,4.8617,4.8764,4.8764,4.8764,4.8764,4.8764,4.8764,4.7564,4.7693,4.7729,4.7893,4.7952,4.8071,4.8124,4.8196,4.8263,4.8407,4.8496,4.8543,4.8622,4.8735,4.8832,4.8851,4.8891,4.8912,4.8931,4.8804,4.8789,4.8775,4.8748,4.8919,4.892,4.9058,4.9059,4.906]}]]